Regional Weather Roundup
Issued by NWS Wakefield, VA

Home | Current Version | Previous Version | Graphics & Text | Print | Product List | Glossary On
Versions: 1 2 3 4 5 6 7 8 9 10 11 12 13 14 15 16 17 18 19 20 21 22 23 24 25 26 27 28 29 30 31 32 33 34 35 36 37 38 39 40 41 42 43 44 45 46 47 48 49 50
000
ASUS41 KAKQ 042110
RWRAKQ

REGIONAL WEATHER ROUNDUP
NATIONAL WEATHER SERVICE WAKEFIELD VA
400 PM EST WED MAR 04 2015

Note: "fair" indicates few or no clouds below 12,000 feet with no
significant weather and/or obstructions to visibility. * = Denotes
station may not report precipitation (e.g., rain,snow,etc.),
thunder or fog.

VAZ042-051-052>054-056-042200-
NORTHERN VIRGINIA

CITY           SKY/WX    TMP DP  RH WIND       PRES   REMARKS
WASH NATIONAL  CLOUDY    51  45  79 CALM      29.89R HAZE
DULLES         CLOUDY    46  43  89 SE3       29.87S
FORT BELVOIR   CLOUDY    49  47  92 VRB3      29.88R
QUANTICO       FOG       40  38  93 SW12      29.88F VSB 1/8
FREDERICKSBRG* DRIZZLE   54  54 100 S7        29.88S
STAFFORD*      DRIZZLE   51  32  47 S5        29.92S
WARRENTON      CLOUDY    50  50 100 CALM      29.87S
CULPEPER*      CLOUDY    50  46  87 CALM      29.88S
MANASSAS*      NOT AVBL
LEESBURG*      RAIN      45  45 100 CALM      29.88S
WINCHESTER     LGT RAIN  50  43  76 SW6       29.86R
FRONT ROYAL*   CLOUDY    52  46  82 SW6       29.85R
LURAY*         CLOUDY    54  50  87 SW10G17   29.86R
$$

VAZ048-049-060>072-079>083-042200-
CENTRAL AND SOUTH CENTRAL VIRGINIA

CITY           SKY/WX    TMP DP  RH WIND       PRES   REMARKS
RICHMOND       CLOUDY    62  52  69 NW3       29.88S
CHESTERFIELD*  CLOUDY    63  46  55 CALM      29.88F
PETERSBURG*    MOSUNNY   67  55  66 N3        29.87S
HANOVER        CLOUDY    58  51  78 CALM      29.89S
TAPPAHANNOCK*  CLOUDY    58  51  77 CALM      29.90R
QUINTON*       CLOUDY    59  53  81 SE3       29.87S
CHARLOTTSVILLE LGT RAIN  50  49  96 CALM      29.88F FOG
GORDONSVILLE*  FOG       47  46  99 CALM      29.88F VSB 1/2
ORANGE*        DRIZZLE   50  50 100 S7        29.90S
LOUISA*        CLOUDY    52  50  93 CALM      29.87F FOG
BUMPASS*       CLOUDY    53  50  88 NW5       29.90R
FARMVILLE*     CLOUDY    62  53  72 CALM      29.86S
CREWE*         CLOUDY    63  54  71 CALM      29.86S
FORT PICKETT*  MOCLDY    62  56  79 CALM      29.86S
CHASE CITY*    CLOUDY    67  60  78 CALM      29.84F
CLARKSVILLE*   CLOUDY    72  57  60 SW15G23   29.83S
SOUTH HILL*    MOSUNNY   71  56  57 SW18G25   29.90S
LAWRENCEVILLE* FAIR      72  57  59 SW18      29.84S
EMPORIA*       SUNNY     72  57  60 S9G25     29.86S
$$

VAZ088>098-042200-
SOUTHEAST VIRGINIA

CITY           SKY/WX    TMP DP  RH WIND       PRES   REMARKS
NORFOLK        SUNNY     70  57  63 SW17G23   29.86F
VIRGINIA BEACH PTSUNNY   72  59  63 SW12      29.87F
NORFOLK NAVAL  MOSUNNY   71  57  61 VRB6      29.88F
WEST POINT*    CLOUDY    61  53  74 CALM      29.89F
SALUDA*        CLOUDY    54  49  84 SE5       29.89S
NEWPORT NEWS   SUNNY     67  56  67 CALM      29.88F
LANGLEY AFB    MOSUNNY   66  58  74 VRB2      29.86F
FORT EUSTIS    SUNNY     64  59  85 NW5       29.85F
WILLIAMSBURG*  MOSUNNY   63  57  82 CALM      29.88F
HR EXEC AP*    FAIR      70  61  73 SW15G21   29.89F
FRANKLIN*      SUNNY     69  58  68 SW10G18   29.87F
WAKEFIELD      MOSUNNY   68  57  68 VRB5      29.86F
$$

VAZ020-022-025-037-045-042200-
WEST CENTRAL AND SOUTHWEST VIRGINIA

CITY           SKY/WX    TMP DP  RH WIND       PRES   REMARKS
STAUNTON*      DRIZZLE   48  46  93 S3        29.89S
WAYNESBORO*    CLOUDY    49  48  99 CALM      29.88R
HOT SPRINGS VA DRZL/FOG  44  44 100 W14G20    29.87R VSB<1/4
LYNCHBURG      CLOUDY    55  50  83 VRB5      29.88S
DANVILLE       CLOUDY    68  56  65 E5        29.83F
SOUTH BOSTON*  CLOUDY    67  56  66 CALM      29.84S
MARTINSVILLE   CLOUDY    73  57  56 CALM      29.85S
ROANOKE        CLOUDY    50  46  86 N9        29.92R
BLACKSBURG     CLOUDY    47  46  95 CALM      29.93R
DUBLIN*        CLOUDY    51  51 100 NE3       29.90F
MARION*        CLOUDY    58  55  88 SW3       29.89S
HILLSVILLE*    CLOUDY    56  52  87 NE7       29.86F
RICHLANDS*     DRIZZLE   47  46  93 CALM      29.87F
WISE*          DRIZZLE   46  46 100 CALM      29.89S
ABINGDON*      CLOUDY    59  56  90 CALM      29.83F
$$

MDZ021>025-VAZ099-100-042200-
SOUTHERN MARYLAND AND THE DELMARVA PENINSULA

CITY           SKY/WX    TMP DP  RH WIND       PRES   REMARKS
PATUXENT RIVER CLOUDY    52  49  89 SW7       29.88S
BAY BRIDGE APT FOG       37  37 100 CALM      29.89R VSB 1/4
LEONARDTOWN    CLOUDY    50  46  87 W6        29.91R
DOVER          CLOUDY    46  46 100 CALM      29.84F FOG
GEORGETOWN     CLOUDY    50  48  93 W3        29.88S
EASTON         FOG       48  48 100 S7        29.92R VSB 3/16
CAMBRIDGE      CLOUDY    46  45  93 CALM      29.89R VSB 1
SALISBURY      CLOUDY    53  49  86 S7        29.88S FOG
OCEAN CITY     CLOUDY    48  47  96 S7        29.90S FOG
WALLOPS ISLAND CLOUDY    50  49  96 S3        29.91S
ACCOMACK*      CLOUDY    55  52  88 SW5       29.90F
$$

NCZ012>017-030>032-042200-
NORTH CENTRAL AND EASTERN NORTH CAROLINA

CITY           SKY/WX    TMP DP  RH WIND       PRES   REMARKS
ROANOKE RAPIDS FAIR      70  59  68 SW20G25   29.88F
RALEIGH        PTSUNNY   74  58  57 SW21G26   29.87F
ELIZABETH CITY MOSUNNY   76  62  62 SW12G18   29.89F
AHOSKIE*       SUNNY     71  60  67 SW7       29.88F
EDENTON*       MOSUNNY   74  62  66 W7        29.89F
CURRITUCK*     MOSUNNY   75  59  57 SW13G21   29.89F
KILL DEVIL HLS PTSUNNY   67  60  77 SW5       29.90F
MANTEO         MOSUNNY   63  57  82 S17       29.92S
CAPE HATTERAS  FOG       57  57 100 SW10      29.98F VSB 1/4
TARBORO*       FAIR      76  62  62 SW9       29.90F
GOLDSBORO      CLOUDY    77  72  85 SW18G24   29.89F
WASHINGTON     PTSUNNY   79  62  55 SW17G26   29.90F
GREENVILLE     MOSUNNY   79  63  57 SW16G29   29.92S
NEW BERN       PTSUNNY   79  62  56 SW17G24   29.93F
WILMINGTON     SUNNY     75  62  64 S20G26    29.97F
$$

VAZ048-042200-
ELSEWHERE

CITY           SKY/WX    TMP DP  RH WIND       PRES   REMARKS
HARRISBURG PA  CLOUDY    40  39  97 CALM      29.89R FOG
BALTIMORE      LGT RAIN  45  43  93 CALM      29.89R FOG
ANNAPOLIS      LGT RAIN  38  37  97 CALM      29.89R FOG
ANDREWS AFB    CLOUDY    49  49  98 SW5       29.87R
PHILADELPHIA   LGT RAIN  42  40  92 S6        29.90F FOG
HENDERSON NC   MOSUNNY   72  54  52 SW13G20   29.86S
GREENSBORO     PTSUNNY   70  56  61 SW23G31   29.85S
ROCKY MOUNT    MOSUNNY   75  62  64 SW14G23   29.89F
$$

VAZ100-042200-
MARINE

STATION/POSITION TIME  TEMP    WIND        PRES    WAVE   SWELL
                       AIR SEA DIR/SP/G            HT/PER HT/PER
                 (UTC) (F)     (DEG/KT/KT) (MB)    (FT/S) (FT/S)
BRANDYWINE LGT   2100           10/  7/ 10 1012.3S
CAPE MAY NJ      2100   45 34   30/  2/  2 1011.7F
LEWES DE         2100          300/  4/  5 1011.8R
15NM E FENWICK I 2100   38 36              1011.9F   5/ 8
OCEAN-CITY-INLET 2100          210/  7/  8 1012.1S
WACHAPREAGUE VA  2100   57 40  250/  3/  7 1012.5S
THOMAS POINT MD  2100   36 32  240/  1/  2 1013.2
COVE POINT MD    2100   49     230/  5/  7 1011.7R
SOLOMONS ISLAND  2100      34                N/A
BISHOPS HEAD MD  2100   37 34  150/  9/  9 1011.3S
CAMBRIDGE MD     2100   47 32  240/  2/  5 1012.1R
LEWISETTA VA     2100   54 34     CALM     1011.7R
RAPPAHANNOCK LGT 2100          170/  9/  9 1012.9F
STINGRAY PT      2100   38     120/  4/  4   N/A
YORK RVR RNG VA  2100   50      80/  3/  4 1011.4S
YORKTOWN VA      2100   46 36   70/  6/  7 1011.5F
DOMINION TERM VA 2100   60     140/  3/  4 1011.5F
KIPTOPEKE VA     2100      40  150/  3/  3   N/A
CHES BAY BRIDGE  2100           70/ 12/ 12 1011.4F
CAPE HENRY VA    2100   46      90/  6/  8 1010.9S
WILLOUBY STN VA  2100   48      90/ 11/ 12 1012.2S
S CRANEY ISL VA  2100          200/  7/ 10 1011.3F
CAPE HENRY BUOY  2100      37                N/A     3/ 8   2/11
1ST LANDING BUOY 2100   41     100/  8/  8 1011.7F
OFFSHORE WE BUOY 2100      38                N/A     4/ 8   2/11
64NM E OF VA BCH 2100   54 54  210/ 12/ 14 1013.2F   5/ 8   5/ 8
DUCK PIER NC     2100   54 36  130/  5/  6 1012.0F
44100 DUCK FRF   2100      39                N/A     4/ 8   2/11
44056 DUCK FRF   2100      38                N/A     3/ 8   2/11
OREGON INLET NC  2100   51 46  200/ 15/ 18 1013.7F
HATTERAS NC      2100   56 46  220/  8/ 13 1015.6S
$$


USA.gov is the U.S. government's official web portal to all federal, state and local government web resources and services.